FW5908 Weather Reports


Display with metric or nautical units.
time (UTC)temp
F
wind
direction
speed
MPH
gust
MPH
rain 1hr
in
rain 24hr
in
rain mn
in
humidity
%
barometer
mb
20211207190830 41 313 10.0 16.0 0.00 0.00 0.00 46 1016.2
20211207185829 40 292 9.0 13.0 0.00 0.00 0.00 46 1016.5
20211207184829 40 242 13.0 21.0 0.00 0.00 0.00 47 1016.6
20211207183829 40 249 8.0 16.0 0.00 0.00 0.00 48 1016.9
20211207182830 39 242 8.0 19.0 0.00 0.00 0.00 49 1016.8
20211207181829 38 203 6.0 15.0 0.00 0.00 0.00 49 1017.3
20211207180829 38 248 9.0 10.0 0.00 0.00 0.00 51 1017.6
20211207175829 38 286 7.0 16.0 0.00 0.00 0.00 52 1017.9
20211207174829 37 168 2.0 15.0 0.00 0.00 0.00 54 1018.2
20211207173829 36 217 10.0 15.0 0.00 0.00 0.00 53 1018.5
20211207172829 36 220 6.0 17.0 0.00 0.00 0.00 54 1018.8
20211207171829 35 189 2.0 17.0 0.00 0.00 0.00 55 1018.9
20211207170829 34 184 2.0 16.0 0.00 0.00 0.00 57 1019.1
20211207165829 33 222 6.0 17.0 0.00 0.00 0.00 58 1019.3
20211207164829 32 250 8.0 17.0 0.00 0.00 0.00 59 1019.5
20211207163829 31 219 5.0 12.0 0.00 0.00 0.00 60 1019.7
20211207162829 30 234 10.0 18.0 0.00 0.00 0.00 60 1019.8
20211207161829 30 215 3.0 19.0 0.00 0.00 0.00 61 1019.9
20211207160829 30 173 2.0 15.0 0.00 0.00 0.00 62 1019.9
20211207155829 29 188 6.0 17.0 0.00 0.00 0.00 61 1020.0
20211207154829 29 244 7.0 15.0 0.00 0.00 0.00 62 1019.7
20211207153829 28 169 4.0 14.0 0.00 0.00 0.00 63 1019.8
20211207152829 28 239 10.0 14.0 0.00 0.00 0.00 63 1019.9
20211207151829 27 216 7.0 13.0 0.00 0.00 0.00 64 1020.0
20211207150829 27 173 2.0 12.0 0.00 0.00 0.00 64 1020.4
20211207145829 26 193 3.0 7.0 0.00 0.00 0.00 64 1020.3
20211207144829 26 245 3.0 5.0 0.00 0.00 0.00 64 1020.6
20211207143829 26 221 2.0 4.0 0.00 0.00 0.00 63 1020.6
20211207142829 26 215 1.0 9.0 0.00 0.00 0.00 64 1020.6
20211207141829 25 240 4.0 7.0 0.00 0.00 0.00 63 1020.2
20211207140829 25 208 4.0 8.0 0.00 0.00 0.00 63 1020.1
20211207135829 25 177 1.0 8.0 0.00 0.00 0.00 63 1020.0
20211207134829 25 257 1.0 6.0 0.00 0.00 0.00 63 1019.8
20211207133828 25 196 2.0 8.0 0.00 0.00 0.00 63 1019.9
20211207132829 25 151 2.0 5.0 0.00 0.00 0.00 62 1020.0
20211207131829 25 225 3.0 8.0 0.00 0.00 0.00 62 1020.1
20211207130828 25 165 1.0 6.0 0.00 0.00 0.00 61 1020.3
20211207125829 25 190 2.0 4.0 0.00 0.00 0.00 61 1020.0
20211207124828 25 186 3.0 7.0 0.00 0.00 0.00 61 1020.3
20211207123828 25 160 4.0 5.0 0.00 0.00 0.00 60 1020.2
20211207122829 25 259 2.0 6.0 0.00 0.00 0.00 60 1020.5
20211207121829 25 161 1.0 4.0 0.00 0.00 0.00 60 1020.5
20211207120828 25 128 1.0 3.0 0.00 0.00 0.00 60 1020.7
20211207115829 25 269 0.0 4.0 0.00 0.00 0.00 60 1020.6
20211207114828 25 234 0.0 4.0 0.00 0.00 0.00 59 1020.8
20211207113829 25 184 1.0 4.0 0.00 0.00 0.00 59 1020.7
20211207112828 25 254 2.0 7.0 0.00 0.00 0.00 60 1020.9
20211207111828 24 195 2.0 7.0 0.00 0.00 0.00 60 1020.6
20211207110828 24 175 2.0 7.0 0.00 0.00 0.00 61 1020.5
20211207105828 24 107 2.0 10.0 0.00 0.00 0.00 62 1020.5
20211207104828 24 201 1.0 8.0 0.00 0.00 0.00 62 1020.8
20211207103828 23 268 2.0 7.0 0.00 0.00 0.00 62 1020.4
20211207102828 23 171 2.0 7.0 0.00 0.00 0.00 62 1020.4
20211207101828 23 226 1.0 10.0 0.00 0.00 0.00 62 1020.6
20211207100828 23 219 1.0 8.0 0.00 0.00 0.00 62 1020.9
20211207095828 23 118 1.0 9.0 0.00 0.00 0.00 63 1021.1
20211207094828 23 90 1.0 5.0 0.00 0.00 0.00 63 1021.2
20211207093828 23 207 2.0 6.0 0.00 0.00 0.00 63 1021.7
20211207092828 22 202 1.0 7.0 0.00 0.00 0.00 63 1022.2
20211207091828 22 162 0.0 5.0 0.00 0.00 0.00 63 1022.4
20211207090828 22 360 1.0 4.0 0.00 0.00 0.00 64 1022.6
20211207085828 22 265 0.0 4.0 0.00 0.00 0.00 64 1022.9
20211207084828 22 218 0.0 5.0 0.00 0.00 0.00 65 1023.1
20211207083828 21 123 3.0 4.0 0.00 0.00 0.00 64 1023.1
20211207082828 21 139 2.0 4.0 0.00 0.00 0.00 64 1023.4
20211207081828 21 146 2.0 8.0 0.00 0.00 0.00 65 1023.5
20211207080828 21 177 1.0 4.0 0.00 0.00 0.00 64 1023.8
20211207075828 21 103 0.0 4.0 0.00 0.00 0.00 64 1024.0
20211207074828 21 188 0.0 6.0 0.00 0.00 0.00 65 1024.0
20211207073828 20 121 1.0 3.0 0.00 0.00 0.00 64 1024.4
20211207072828 20 124 3.0 4.0 0.00 0.00 0.00 63 1024.6
20211207071828 20 127 2.0 3.0 0.00 0.00 0.00 64 1024.8
20211207070828 20 114 1.0 2.0 0.00 0.00 0.00 64 1024.9
20211207065828 20 130 2.0 2.0 0.00 0.00 0.00 64 1025.2
20211207064828 20 130 1.0 3.0 0.00 0.00 0.00 63 1025.5
20211207063828 19 127 2.0 3.0 0.00 0.00 0.00 64 1025.7
20211207062828 19 73 1.0 3.0 0.00 0.00 0.00 65 1025.9
20211207061827 18 68 2.0 2.0 0.00 0.00 0.00 67 1025.8
20211207060827 18 67 2.0 3.0 0.00 0.00 0.00 67 1026.1
20211207055828 18 67 0.0 1.0 0.00 0.00 0.00 67 1026.0
20211207054827 18 67 0.0 2.0 0.00 0.00 0.00 67 1026.1
20211207053828 18 346 1.0 2.0 0.00 0.00 0.00 66 1026.0
20211207052827 17 346 0.0 2.0 0.00 0.00 0.00 66 1026.2
20211207051827 17 346 0.0 1.0 0.00 0.00 0.00 69 1026.3
20211207050827 16 346 0.0 0.0 0.00 0.00 0.00 70 1026.4
20211207045827 16 346 0.0 0.0 0.00 0.00 0.00 70 1026.7
20211207044828 16 346 0.0 0.0 0.00 0.00 0.00 70 1026.5
20211207043827 16 346 0.0 0.0 0.00 0.00 0.00 70 1027.0
20211207042827 16 346 0.0 1.0 0.00 0.00 0.00 68 1027.2
20211207041827 16 346 0.0 0.0 0.00 0.00 0.00 68 1026.9
20211207040827 16 346 0.0 0.0 0.00 0.00 0.00 68 1027.0
20211207035827 16 346 0.0 1.0 0.00 0.00 0.00 68 1027.0
20211207034827 16 346 0.0 1.0 0.00 0.00 0.00 67 1027.2
20211207033827 16 346 0.0 0.0 0.00 0.00 0.00 67 1027.3
20211207032827 16 346 0.0 0.0 0.00 0.00 0.00 66 1027.0
20211207031827 16 346 0.0 0.0 0.00 0.00 0.00 65 1027.1
20211207030827 16 346 0.0 0.0 0.00 0.00 0.00 65 1026.9
20211207025827 16 346 0.0 0.0 0.00 0.00 0.00 66 1026.9
20211207024827 17 346 0.0 0.0 0.00 0.00 0.00 64 1027.1
20211207023828 17 346 0.0 1.0 0.00 0.00 0.00 64 1027.1
20211207022827 17 346 0.0 2.0 0.00 0.00 0.00 65 1027.3
20211207021827 17 346 0.0 0.0 0.00 0.00 0.00 66 1027.0
20211207020827 18 346 0.0 0.0 0.00 0.00 0.00 65 1027.2
20211207015827 18 346 0.0 0.0 0.00 0.00 0.00 65 1027.4
20211207014827 18 346 0.0 1.0 0.00 0.00 0.00 62 1027.3
20211207013827 18 346 0.0 0.0 0.00 0.00 0.00 64 1027.4
20211207012827 18 346 0.0 0.0 0.00 0.00 0.00 63 1027.5
20211207011827 18 346 0.0 0.0 0.00 0.00 0.00 59 1027.4
20211207010827 18 346 0.0 0.0 0.00 0.00 0.00 57 1027.5
20211207005827 18 346 0.0 0.0 0.00 0.00 0.00 62 1027.7
20211207004827 19 346 0.0 0.0 0.00 0.00 0.00 57 1027.6
20211207003827 19 346 0.0 0.0 0.00 0.00 0.00 55 1027.4
20211207002827 19 346 0.0 0.0 0.00 0.00 0.00 59 1027.7
20211207001827 19 346 0.0 0.0 0.00 0.00 0.00 55 1027.5
20211207000826 20 346 0.0 0.0 0.00 0.00 0.00 58 1027.7
20211206235827 20 346 0.0 0.0 0.00 0.00 0.00 56 1027.8
20211206234826 20 346 0.0 0.0 0.00 0.00 0.00 54 1027.6
20211206233826 21 346 0.0 0.0 0.00 0.00 0.00 52 1027.8
20211206232827 21 346 0.0 0.0 0.00 0.00 0.00 53 1027.5
20211206231826 22 346 0.0 0.0 0.00 0.00 0.00 52 1027.6
20211206230827 22 346 0.0 1.0 0.00 0.00 0.00 51 1028.0
20211206225826 22 346 0.0 1.0 0.00 0.00 0.00 51 1028.2
20211206224826 23 346 0.0 2.0 0.00 0.00 0.00 50 1028.3
20211206223826 23 327 1.0 2.0 0.00 0.00 0.00 49 1028.5
20211206222826 23 70 0.0 3.0 0.00 0.00 0.00 50 1028.5
20211206221826 23 285 1.0 4.0 0.00 0.00 0.00 49 1028.9
20211206220826 24 319 4.0 4.0 0.00 0.00 0.00 50 1028.7
20211206215826 24 333 1.0 4.0 0.00 0.00 0.00 49 1028.8
20211206214826 24 326 1.0 5.0 0.00 0.00 0.00 50 1028.8
20211206213826 24 346 2.0 4.0 0.00 0.00 0.00 49 1028.8
20211206212826 24 331 1.0 5.0 0.00 0.00 0.00 50 1029.1
20211206211826 24 271 2.0 9.0 0.00 0.00 0.00 50 1029.4
20211206210826 25 277 6.0 9.0 0.00 0.00 0.00 50 1029.6
20211206205826 25 273 3.0 8.0 0.00 0.00 0.00 49 1029.3
20211206204826 26 173 6.0 6.0 0.00 0.00 0.00 48 1029.5
20211206203826 25 311 1.0 5.0 0.00 0.00 0.00 49 1029.3
20211206202826 26 299 2.0 10.0 0.00 0.00 0.00 49 1029.2
20211206201826 27 332 3.0 7.0 0.00 0.00 0.00 49 1029.5
20211206200826 27 298 3.0 8.0 0.00 0.00 0.00 51 1029.3
20211206195826 27 282 1.0 7.0 0.00 0.00 0.00 52 1029.4
20211206194826 26 355 1.0 9.0 0.00 0.00 0.00 54 1029.4
20211206193826 26 271 1.0 5.0 0.00 0.00 0.00 53 1029.4
20211206192826 26 355 3.0 5.0 0.00 0.00 0.00 52 1029.5
20211206191826 27 287 3.0 5.0 0.00 0.00 0.00 50 1029.7